Year,Month,Day,Hour,Minute,Value (Times are PST for temperature in C)
2020,04,12,00,00,6.30
2020,04,12,00,01,6.30
2020,04,12,00,02,6.30
2020,04,12,00,03,6.30
2020,04,12,00,04,6.30
2020,04,12,00,05,6.30
2020,04,12,00,06,6.30
2020,04,12,00,07,6.30
2020,04,12,00,08,6.30
2020,04,12,00,09,6.30
2020,04,12,00,10,6.30
2020,04,12,00,11,6.30
2020,04,12,00,12,6.30
2020,04,12,00,13,6.30
2020,04,12,00,14,6.30
2020,04,12,00,15,6.30
2020,04,12,00,16,6.30
2020,04,12,00,17,6.40
2020,04,12,00,18,6.40
2020,04,12,00,19,6.40
2020,04,12,00,20,6.40
2020,04,12,00,21,6.40
2020,04,12,00,22,6.50
2020,04,12,00,23,6.50
2020,04,12,00,24,6.50
2020,04,12,00,25,6.50
2020,04,12,00,26,6.50
2020,04,12,00,27,6.60
2020,04,12,00,28,6.60
2020,04,12,00,29,6.60
2020,04,12,00,30,6.60
2020,04,12,00,31,6.60
2020,04,12,00,32,6.60
2020,04,12,00,33,6.60
2020,04,12,00,34,6.60
2020,04,12,00,35,6.60
2020,04,12,00,36,6.60
2020,04,12,00,37,6.60
2020,04,12,00,38,6.70
2020,04,12,00,39,6.70
2020,04,12,00,40,6.70
2020,04,12,00,41,6.70
2020,04,12,00,42,6.70
2020,04,12,00,43,6.70
2020,04,12,00,44,6.70
2020,04,12,00,45,6.70
2020,04,12,00,46,6.70
2020,04,12,00,47,6.70
2020,04,12,00,48,6.70
2020,04,12,00,49,6.70
2020,04,12,00,50,6.70
2020,04,12,00,51,6.70
2020,04,12,00,52,6.70
2020,04,12,00,53,6.70
2020,04,12,00,54,6.70
2020,04,12,00,55,6.70
2020,04,12,00,56,6.70
2020,04,12,00,57,6.70
2020,04,12,00,58,6.70
2020,04,12,00,59,6.70
2020,04,12,01,00,6.70
2020,04,12,01,01,6.70
2020,04,12,01,02,6.70
2020,04,12,01,03,6.70
2020,04,12,01,04,6.70
2020,04,12,01,05,6.70
2020,04,12,01,06,6.70
2020,04,12,01,07,6.70
2020,04,12,01,08,6.70
2020,04,12,01,09,6.70
2020,04,12,01,10,6.70
2020,04,12,01,11,6.70
2020,04,12,01,12,6.70
2020,04,12,01,13,6.70
2020,04,12,01,14,6.70
2020,04,12,01,15,6.70
2020,04,12,01,16,6.60
2020,04,12,01,17,6.60
2020,04,12,01,18,6.60
2020,04,12,01,19,6.60
2020,04,12,01,20,6.60
2020,04,12,01,21,6.60
2020,04,12,01,22,6.60
2020,04,12,01,23,6.60
2020,04,12,01,24,6.60
2020,04,12,01,25,6.60
2020,04,12,01,26,6.60
2020,04,12,01,27,6.60
2020,04,12,01,28,6.50
2020,04,12,01,29,6.50
2020,04,12,01,30,6.50
2020,04,12,01,31,6.50
2020,04,12,01,32,6.50
2020,04,12,01,33,6.50
2020,04,12,01,34,6.50
2020,04,12,01,35,6.50
2020,04,12,01,36,6.40
2020,04,12,01,37,6.40
2020,04,12,01,38,6.40
2020,04,12,01,39,6.40
2020,04,12,01,40,6.40
2020,04,12,01,41,6.40
2020,04,12,01,42,6.40
2020,04,12,01,43,6.40
2020,04,12,01,44,6.30
2020,04,12,01,45,6.30
2020,04,12,01,46,6.30
2020,04,12,01,47,6.30
2020,04,12,01,48,6.30
2020,04,12,01,49,6.30
2020,04,12,01,50,6.30
2020,04,12,01,51,6.20
2020,04,12,01,52,6.20
2020,04,12,01,53,6.20
2020,04,12,01,54,6.20
2020,04,12,01,55,6.20
2020,04,12,01,56,6.20
2020,04,12,01,57,6.20
2020,04,12,01,58,6.20
2020,04,12,01,59,6.20
2020,04,12,02,00,6.20
2020,04,12,02,01,6.20
2020,04,12,02,02,6.20
2020,04,12,02,03,6.20
2020,04,12,02,04,6.10
2020,04,12,02,05,6.10
2020,04,12,02,06,6.10
2020,04,12,02,07,6.10
2020,04,12,02,08,6.10
2020,04,12,02,09,6.10
2020,04,12,02,10,6.10
2020,04,12,02,11,6.10
2020,04,12,02,12,6.10
2020,04,12,02,13,6.10
2020,04,12,02,14,6.00
2020,04,12,02,15,6.00
2020,04,12,02,16,6.00
2020,04,12,02,17,6.00
2020,04,12,02,18,6.00
2020,04,12,02,19,6.00
2020,04,12,02,20,6.00
2020,04,12,02,21,6.00
2020,04,12,02,22,5.90
2020,04,12,02,23,5.90
2020,04,12,02,24,5.90
2020,04,12,02,25,5.90
2020,04,12,02,26,5.90
2020,04,12,02,27,5.90
2020,04,12,02,28,5.90
2020,04,12,02,29,5.90
2020,04,12,02,30,5.80
2020,04,12,02,31,5.80
2020,04,12,02,32,5.80
2020,04,12,02,33,5.80
2020,04,12,02,34,5.80
2020,04,12,02,35,5.80
2020,04,12,02,36,5.80
2020,04,12,02,37,5.80
2020,04,12,02,38,5.70
2020,04,12,02,39,5.70
2020,04,12,02,40,5.70
2020,04,12,02,41,5.70
2020,04,12,02,42,5.70
2020,04,12,02,43,5.70
2020,04,12,02,44,5.70
2020,04,12,02,45,5.60
2020,04,12,02,46,5.60
2020,04,12,02,47,5.60
2020,04,12,02,48,5.60
2020,04,12,02,49,5.60
2020,04,12,02,50,5.50
2020,04,12,02,51,5.50
2020,04,12,02,52,5.50
2020,04,12,02,53,5.50
2020,04,12,02,54,5.40
2020,04,12,02,55,5.40
2020,04,12,02,56,5.40
2020,04,12,02,57,5.40
2020,04,12,02,58,5.40
2020,04,12,02,59,5.30
2020,04,12,03,00,5.30
2020,04,12,03,01,5.30
2020,04,12,03,02,5.30
2020,04,12,03,03,5.30
2020,04,12,03,04,5.30
2020,04,12,03,05,5.30
2020,04,12,03,06,5.30
2020,04,12,03,07,5.20
2020,04,12,03,08,5.20
2020,04,12,03,09,5.20
2020,04,12,03,10,5.20
2020,04,12,03,11,5.20
2020,04,12,03,12,5.20
2020,04,12,03,13,5.20
2020,04,12,03,14,5.10
2020,04,12,03,15,5.10
2020,04,12,03,16,5.10
2020,04,12,03,17,5.10
2020,04,12,03,18,5.10
2020,04,12,03,19,5.10
2020,04,12,03,20,5.00
2020,04,12,03,21,5.00
2020,04,12,03,22,5.00
2020,04,12,03,23,5.00
2020,04,12,03,24,4.90
2020,04,12,03,25,4.90
2020,04,12,03,26,4.90
2020,04,12,03,27,4.90
2020,04,12,03,28,4.90
2020,04,12,03,29,4.80
2020,04,12,03,30,4.80
2020,04,12,03,31,4.80
2020,04,12,03,32,4.80
2020,04,12,03,33,4.80
2020,04,12,03,34,4.80
2020,04,12,03,35,4.80
2020,04,12,03,36,4.70
2020,04,12,03,37,4.70
2020,04,12,03,38,4.70
2020,04,12,03,39,4.70
2020,04,12,03,40,4.70
2020,04,12,03,41,4.70
2020,04,12,03,42,4.70
2020,04,12,03,43,4.70
2020,04,12,03,44,4.60
2020,04,12,03,45,4.60
2020,04,12,03,46,4.60
2020,04,12,03,47,4.60
2020,04,12,03,48,4.60
2020,04,12,03,49,4.60
2020,04,12,03,50,4.60
2020,04,12,03,51,4.60
2020,04,12,03,52,4.60
2020,04,12,03,53,4.50
2020,04,12,03,54,4.50
2020,04,12,03,55,4.50
2020,04,12,03,56,4.50
2020,04,12,03,57,4.50
2020,04,12,03,58,4.50
2020,04,12,03,59,4.50
2020,04,12,04,00,4.50
2020,04,12,04,01,4.50
2020,04,12,04,02,4.40
2020,04,12,04,03,4.40
2020,04,12,04,04,4.40
2020,04,12,04,05,4.40
2020,04,12,04,06,4.40
2020,04,12,04,07,4.40
2020,04,12,04,08,4.40
2020,04,12,04,09,4.40
2020,04,12,04,10,4.40
2020,04,12,04,11,4.40
2020,04,12,04,12,4.40
2020,04,12,04,13,4.40
2020,04,12,04,14,4.50
2020,04,12,04,15,4.50
2020,04,12,04,16,4.50
2020,04,12,04,17,4.50
2020,04,12,04,18,4.50
2020,04,12,04,19,4.50
2020,04,12,04,20,4.50
2020,04,12,04,21,4.50
2020,04,12,04,22,4.50
2020,04,12,04,23,4.50
2020,04,12,04,24,4.50
2020,04,12,04,25,4.50
2020,04,12,04,26,4.50
2020,04,12,04,27,4.50
2020,04,12,04,28,4.50
2020,04,12,04,29,4.50
2020,04,12,04,30,4.50
2020,04,12,04,31,4.50
2020,04,12,04,32,4.50
2020,04,12,04,33,4.50
2020,04,12,04,34,4.40
2020,04,12,04,35,4.40
2020,04,12,04,36,4.40
2020,04,12,04,37,4.40
2020,04,12,04,38,4.40
2020,04,12,04,39,4.40
2020,04,12,04,40,4.40
2020,04,12,04,41,4.40
2020,04,12,04,42,4.40
2020,04,12,04,43,4.40
2020,04,12,04,44,4.40
2020,04,12,04,45,4.40
2020,04,12,04,46,4.40
2020,04,12,04,47,4.40
2020,04,12,04,48,4.40
2020,04,12,04,49,4.40
2020,04,12,04,50,4.40
2020,04,12,04,51,4.30
2020,04,12,04,52,4.30
2020,04,12,04,53,4.30
2020,04,12,04,54,4.30
2020,04,12,04,55,4.30
2020,04,12,04,56,4.30
2020,04,12,04,57,4.30
2020,04,12,04,58,4.30
2020,04,12,04,59,4.30
2020,04,12,05,00,4.30
2020,04,12,05,01,4.30
2020,04,12,05,02,4.30
2020,04,12,05,03,4.30
2020,04,12,05,04,4.20
2020,04,12,05,05,4.20
2020,04,12,05,06,4.20
2020,04,12,05,07,4.20
2020,04,12,05,08,4.20
2020,04,12,05,09,4.20
2020,04,12,05,10,4.20
2020,04,12,05,11,4.20
2020,04,12,05,12,4.20
2020,04,12,05,13,4.20
2020,04,12,05,14,4.20
2020,04,12,05,15,4.20
2020,04,12,05,16,4.20
2020,04,12,05,17,4.20
2020,04,12,05,18,4.20
2020,04,12,05,19,4.20
2020,04,12,05,20,4.20
2020,04,12,05,21,4.20
2020,04,12,05,22,4.20
2020,04,12,05,23,4.20
2020,04,12,05,24,4.20
2020,04,12,05,25,4.10
2020,04,12,05,26,4.10
2020,04,12,05,27,4.10
2020,04,12,05,28,4.10
2020,04,12,05,29,4.10
2020,04,12,05,30,4.10
2020,04,12,05,31,4.10
2020,04,12,05,32,4.10
2020,04,12,05,33,4.10
2020,04,12,05,34,4.10
2020,04,12,05,35,4.10
2020,04,12,05,36,4.10
2020,04,12,05,37,4.10
2020,04,12,05,38,4.10
2020,04,12,05,39,4.10
2020,04,12,05,40,4.10
2020,04,12,05,41,4.10
2020,04,12,05,42,4.10
2020,04,12,05,43,4.10
2020,04,12,05,44,4.10
2020,04,12,05,45,4.10
2020,04,12,05,46,4.10
2020,04,12,05,47,4.10
2020,04,12,05,48,4.10
2020,04,12,05,49,4.10
2020,04,12,05,50,4.10
2020,04,12,05,51,4.10
2020,04,12,05,52,4.00
2020,04,12,05,53,4.00
2020,04,12,05,54,4.00
2020,04,12,05,55,4.00
2020,04,12,05,56,4.00
2020,04,12,05,57,4.00
2020,04,12,05,58,4.00
2020,04,12,05,59,4.00
2020,04,12,06,00,4.00
2020,04,12,06,01,4.00
2020,04,12,06,02,4.00
2020,04,12,06,03,4.00
2020,04,12,06,04,4.00
2020,04,12,06,05,3.90
2020,04,12,06,06,3.90
2020,04,12,06,07,3.90
2020,04,12,06,08,3.90
2020,04,12,06,09,3.90
2020,04,12,06,10,3.90
2020,04,12,06,11,3.90
2020,04,12,06,12,3.90
2020,04,12,06,13,3.90
2020,04,12,06,14,3.90
2020,04,12,06,15,3.80
2020,04,12,06,16,3.80
2020,04,12,06,17,3.80
2020,04,12,06,18,3.80
2020,04,12,06,19,3.80
2020,04,12,06,20,3.80
2020,04,12,06,21,3.80
2020,04,12,06,22,3.80
2020,04,12,06,23,3.80
2020,04,12,06,24,3.80
2020,04,12,06,25,3.80
2020,04,12,06,26,3.80
2020,04,12,06,27,3.80
2020,04,12,06,28,3.80
2020,04,12,06,29,3.80
2020,04,12,06,30,3.80
2020,04,12,06,31,3.80
2020,04,12,06,32,3.80
2020,04,12,06,33,3.80
2020,04,12,06,34,3.80
2020,04,12,06,35,3.80
2020,04,12,06,36,3.80
2020,04,12,06,37,3.80
2020,04,12,06,38,3.80
2020,04,12,06,39,3.80
2020,04,12,06,40,3.80
2020,04,12,06,41,3.80
2020,04,12,06,42,3.80
2020,04,12,06,43,3.80
2020,04,12,06,44,3.80
2020,04,12,06,45,3.80
2020,04,12,06,46,3.80
2020,04,12,06,47,3.80
2020,04,12,06,48,3.80
2020,04,12,06,49,3.80
2020,04,12,06,50,3.80
2020,04,12,06,51,3.80
2020,04,12,06,52,3.80
2020,04,12,06,53,3.80
2020,04,12,06,54,3.80
2020,04,12,06,55,3.80
2020,04,12,06,56,3.80
2020,04,12,06,57,3.80
2020,04,12,06,58,3.80
2020,04,12,06,59,3.80
2020,04,12,07,00,3.80
2020,04,12,07,01,3.80
2020,04,12,07,02,3.80
2020,04,12,07,03,3.80
2020,04,12,07,04,3.80
2020,04,12,07,05,3.80
2020,04,12,07,06,3.80
2020,04,12,07,07,3.80
2020,04,12,07,08,3.80
2020,04,12,07,09,3.80
2020,04,12,07,10,3.80
2020,04,12,07,11,3.80
2020,04,12,07,12,3.80
2020,04,12,07,13,3.80
2020,04,12,07,14,3.80
2020,04,12,07,15,3.80
2020,04,12,07,16,3.80
2020,04,12,07,17,3.80
2020,04,12,07,18,3.80
2020,04,12,07,19,3.80
2020,04,12,07,20,3.80
2020,04,12,07,21,3.80
2020,04,12,07,22,3.80
2020,04,12,07,23,3.80
2020,04,12,07,24,3.80
2020,04,12,07,25,3.80
2020,04,12,07,26,3.90
2020,04,12,07,27,3.90
2020,04,12,07,28,3.90
2020,04,12,07,29,3.90
2020,04,12,07,30,3.90
2020,04,12,07,31,3.90
2020,04,12,07,32,3.90
2020,04,12,07,33,3.90
2020,04,12,07,34,3.90
2020,04,12,07,35,3.90
2020,04,12,07,36,3.90
2020,04,12,07,37,3.90
2020,04,12,07,38,3.90
2020,04,12,07,39,3.90
2020,04,12,07,40,3.90
2020,04,12,07,41,3.90
2020,04,12,07,42,3.90
2020,04,12,07,43,3.90
2020,04,12,07,44,3.90
2020,04,12,07,45,3.90
2020,04,12,07,46,3.90
2020,04,12,07,47,3.90
2020,04,12,07,48,4.00
2020,04,12,07,49,4.00
2020,04,12,07,50,4.00
2020,04,12,07,51,4.00
2020,04,12,07,52,4.00
2020,04,12,07,53,4.00
2020,04,12,07,54,4.00
2020,04,12,07,55,4.00
2020,04,12,07,56,4.00
2020,04,12,07,57,4.00
2020,04,12,07,58,4.00
2020,04,12,07,59,4.00
2020,04,12,08,00,4.00
2020,04,12,08,01,4.00
2020,04,12,08,02,4.00
2020,04,12,08,03,4.00
2020,04,12,08,04,4.00
2020,04,12,08,05,4.00
2020,04,12,08,06,4.00
2020,04,12,08,07,4.00
2020,04,12,08,08,4.00
2020,04,12,08,09,4.00
2020,04,12,08,10,4.00
2020,04,12,08,11,4.00
2020,04,12,08,12,4.00
2020,04,12,08,13,4.10
2020,04,12,08,14,4.10
2020,04,12,08,15,4.10
2020,04,12,08,16,4.10
2020,04,12,08,17,4.10
2020,04,12,08,18,4.10
2020,04,12,08,19,4.10
2020,04,12,08,20,4.10
2020,04,12,08,21,4.10
2020,04,12,08,22,4.10
2020,04,12,08,23,4.20
2020,04,12,08,24,4.20
2020,04,12,08,25,4.20
2020,04,12,08,26,4.20
2020,04,12,08,27,4.20
2020,04,12,08,28,4.20
2020,04,12,08,29,4.30
2020,04,12,08,30,4.30
2020,04,12,08,31,4.30
2020,04,12,08,32,4.30
2020,04,12,08,33,4.30
2020,04,12,08,34,4.30
2020,04,12,08,35,4.30
2020,04,12,08,36,4.30
2020,04,12,08,37,4.30
2020,04,12,08,38,4.30
2020,04,12,08,39,4.40
2020,04,12,08,40,4.40
2020,04,12,08,41,4.40
2020,04,12,08,42,4.40
2020,04,12,08,43,4.40
2020,04,12,08,44,4.50
2020,04,12,08,45,4.50
2020,04,12,08,46,4.50
2020,04,12,08,47,4.60
2020,04,12,08,48,4.60
2020,04,12,08,49,4.60
2020,04,12,08,50,4.70
2020,04,12,08,51,4.70
2020,04,12,08,52,4.70
2020,04,12,08,53,4.70
2020,04,12,08,54,4.80
2020,04,12,08,55,4.80
2020,04,12,08,56,4.80
2020,04,12,08,57,4.90
2020,04,12,08,58,4.90
2020,04,12,08,59,4.90
2020,04,12,09,00,5.00
2020,04,12,09,01,5.00
2020,04,12,09,02,5.10
2020,04,12,09,03,5.10
2020,04,12,09,04,5.20
2020,04,12,09,05,5.20
2020,04,12,09,06,5.20
2020,04,12,09,07,5.30
2020,04,12,09,08,5.40
2020,04,12,09,09,5.50
2020,04,12,09,10,5.50
2020,04,12,09,11,5.60
2020,04,12,09,12,5.70
2020,04,12,09,13,5.70
2020,04,12,09,14,5.80
2020,04,12,09,15,5.80
2020,04,12,09,16,5.80
2020,04,12,09,17,5.90
2020,04,12,09,18,5.90
2020,04,12,09,19,6.00
2020,04,12,09,20,6.00
2020,04,12,09,21,6.10
2020,04,12,09,22,6.10
2020,04,12,09,23,6.10
2020,04,12,09,24,6.20
2020,04,12,09,25,6.20
2020,04,12,09,26,6.20
2020,04,12,09,27,6.20
2020,04,12,09,28,6.20
2020,04,12,09,29,6.30
2020,04,12,09,30,6.30
2020,04,12,09,31,6.30
2020,04,12,09,32,6.30
2020,04,12,09,33,6.40
2020,04,12,09,34,6.40
2020,04,12,09,35,6.40
2020,04,12,09,36,6.50
2020,04,12,09,37,6.60
2020,04,12,09,38,6.60
2020,04,12,09,39,6.70
2020,04,12,09,40,6.70
2020,04,12,09,41,6.80
2020,04,12,09,42,6.80
2020,04,12,09,43,6.90
2020,04,12,09,44,6.90
2020,04,12,09,45,6.90
2020,04,12,09,46,7.00
2020,04,12,09,47,7.00
2020,04,12,09,48,7.10
2020,04,12,09,49,7.10
2020,04,12,09,50,7.20
2020,04,12,09,51,7.20
2020,04,12,09,52,7.20
2020,04,12,09,53,7.30
2020,04,12,09,54,7.30
2020,04,12,09,55,7.40
2020,04,12,09,56,7.40
2020,04,12,09,57,7.40
2020,04,12,09,58,7.50
2020,04,12,09,59,7.50
2020,04,12,10,00,7.60
2020,04,12,10,01,7.60
2020,04,12,10,02,7.70
2020,04,12,10,03,7.70
2020,04,12,10,04,7.80
2020,04,12,10,05,7.90
2020,04,12,10,06,7.90
2020,04,12,10,07,8.00
2020,04,12,10,08,8.10
2020,04,12,10,09,8.20
2020,04,12,10,10,8.30
2020,04,12,10,11,8.30
2020,04,12,10,12,8.30
2020,04,12,10,13,8.40
2020,04,12,10,14,8.50
2020,04,12,10,15,8.60
2020,04,12,10,16,8.60
2020,04,12,10,17,8.70
2020,04,12,10,18,8.70
2020,04,12,10,19,8.70
2020,04,12,10,20,8.80
2020,04,12,10,21,8.80
2020,04,12,10,22,8.80
2020,04,12,10,23,8.90
2020,04,12,10,24,8.90
2020,04,12,10,25,9.00
2020,04,12,10,26,9.00
2020,04,12,10,27,9.10
2020,04,12,10,28,9.10
2020,04,12,10,29,9.20
2020,04,12,10,30,9.20
2020,04,12,10,31,9.30
2020,04,12,10,32,9.30
2020,04,12,10,33,9.30
2020,04,12,10,34,9.30
2020,04,12,10,35,9.30
2020,04,12,10,36,9.40
2020,04,12,10,37,9.40
2020,04,12,10,38,9.40
2020,04,12,10,39,9.40
2020,04,12,10,40,9.50
2020,04,12,10,41,9.50
2020,04,12,10,42,9.50
2020,04,12,10,43,9.50
2020,04,12,10,44,9.50
2020,04,12,10,45,9.60
2020,04,12,10,46,9.60
2020,04,12,10,47,9.60
2020,04,12,10,48,9.60
2020,04,12,10,49,9.60
2020,04,12,10,50,9.60
2020,04,12,10,51,9.60
2020,04,12,10,52,9.60
2020,04,12,10,53,9.70
2020,04,12,10,54,9.70
2020,04,12,10,55,9.70
2020,04,12,10,56,9.70
2020,04,12,10,57,9.80
2020,04,12,10,58,9.80
2020,04,12,10,59,9.80
2020,04,12,11,00,9.90
2020,04,12,11,01,9.90
2020,04,12,11,02,9.90
2020,04,12,11,03,9.90
2020,04,12,11,04,9.90
2020,04,12,11,05,9.90
2020,04,12,11,06,10.00
2020,04,12,11,07,10.10
2020,04,12,11,08,10.10
2020,04,12,11,09,10.20
2020,04,12,11,10,10.20
2020,04,12,11,11,10.20
2020,04,12,11,12,10.20
2020,04,12,11,13,10.30
2020,04,12,11,14,10.30
2020,04,12,11,15,10.30
2020,04,12,11,16,10.30
2020,04,12,11,17,10.40
2020,04,12,11,18,10.40
2020,04,12,11,19,10.40
2020,04,12,11,20,10.40
2020,04,12,11,21,10.40
2020,04,12,11,22,10.50
2020,04,12,11,23,10.50
2020,04,12,11,24,10.50
2020,04,12,11,25,10.50
2020,04,12,11,26,10.60
2020,04,12,11,27,10.60
2020,04,12,11,28,10.60
2020,04,12,11,29,10.60
2020,04,12,11,30,10.60
2020,04,12,11,31,10.70
2020,04,12,11,32,10.70
2020,04,12,11,33,10.70
2020,04,12,11,34,10.70
2020,04,12,11,35,10.70
2020,04,12,11,36,10.80
2020,04,12,11,37,10.80
2020,04,12,11,38,10.80
2020,04,12,11,39,10.80
2020,04,12,11,40,10.90
2020,04,12,11,41,10.90
2020,04,12,11,42,10.90
2020,04,12,11,43,10.90
2020,04,12,11,44,11.00
2020,04,12,11,45,11.00
2020,04,12,11,46,11.10
2020,04,12,11,47,11.10
2020,04,12,11,48,11.10
2020,04,12,11,49,11.20
2020,04,12,11,50,11.20
2020,04,12,11,51,11.20
2020,04,12,11,52,11.20
2020,04,12,11,53,11.20
2020,04,12,11,54,11.20
2020,04,12,11,55,11.20
2020,04,12,11,56,11.20
2020,04,12,11,57,11.10
2020,04,12,11,58,11.10
2020,04,12,11,59,11.10
2020,04,12,12,00,11.10
2020,04,12,12,01,11.10
2020,04,12,12,02,11.10
2020,04,12,12,03,11.10
2020,04,12,12,04,11.10
2020,04,12,12,05,11.00
2020,04,12,12,06,11.00
2020,04,12,12,07,11.00
2020,04,12,12,08,11.00
2020,04,12,12,09,11.00
2020,04,12,12,10,11.00
2020,04,12,12,11,11.00
2020,04,12,12,12,11.00
2020,04,12,12,13,11.00
2020,04,12,12,14,11.00
2020,04,12,12,15,11.00
2020,04,12,12,16,11.00
2020,04,12,12,17,11.00
2020,04,12,12,18,10.90
2020,04,12,12,19,10.90
2020,04,12,12,20,11.00
2020,04,12,12,21,11.00
2020,04,12,12,22,10.90
2020,04,12,12,23,10.90
2020,04,12,12,24,10.90
2020,04,12,12,25,10.90
2020,04,12,12,26,11.00
2020,04,12,12,27,11.00
2020,04,12,12,28,11.00
2020,04,12,12,29,11.10
2020,04,12,12,30,11.10
2020,04,12,12,31,11.10
2020,04,12,12,32,11.20
2020,04,12,12,33,11.20
2020,04,12,12,34,11.20
2020,04,12,12,35,11.20
2020,04,12,12,36,11.20
2020,04,12,12,37,11.20
2020,04,12,12,38,11.20
2020,04,12,12,39,11.30
2020,04,12,12,40,11.30
2020,04,12,12,41,11.30
2020,04,12,12,42,11.30
2020,04,12,12,43,11.30
2020,04,12,12,44,11.30
2020,04,12,12,45,11.30
2020,04,12,12,46,11.30
2020,04,12,12,47,11.30
2020,04,12,12,48,11.30
2020,04,12,12,49,11.40
2020,04,12,12,50,11.40
2020,04,12,12,51,11.40
2020,04,12,12,52,11.40
2020,04,12,12,53,11.50
2020,04,12,12,54,11.50
2020,04,12,12,55,11.50
2020,04,12,12,56,11.50
2020,04,12,12,57,11.60
2020,04,12,12,58,11.60
2020,04,12,12,59,11.60
2020,04,12,13,00,11.60
2020,04,12,13,01,11.60
2020,04,12,13,02,11.60
2020,04,12,13,03,11.60
2020,04,12,13,04,11.60
2020,04,12,13,05,11.60
2020,04,12,13,06,11.60
2020,04,12,13,07,11.60
2020,04,12,13,08,11.60
2020,04,12,13,09,11.70
2020,04,12,13,10,11.70
2020,04,12,13,11,11.70
2020,04,12,13,12,11.70
2020,04,12,13,13,11.80
2020,04,12,13,14,11.80
2020,04,12,13,15,11.80
2020,04,12,13,16,11.90
2020,04,12,13,17,11.90
2020,04,12,13,18,11.90
2020,04,12,13,19,12.00
2020,04,12,13,20,12.00
2020,04,12,13,21,12.10
2020,04,12,13,22,12.10
2020,04,12,13,23,12.10
2020,04,12,13,24,12.20
2020,04,12,13,25,12.20
2020,04,12,13,26,12.30
2020,04,12,13,27,12.30
2020,04,12,13,28,12.40
2020,04,12,13,29,12.40
2020,04,12,13,30,12.50
2020,04,12,13,31,12.60
2020,04,12,13,32,12.60
2020,04,12,13,33,12.70
2020,04,12,13,34,12.70
2020,04,12,13,35,12.80
2020,04,12,13,36,12.80
2020,04,12,13,37,12.80
2020,04,12,13,38,12.80
2020,04,12,13,39,12.80
2020,04,12,13,40,12.80
2020,04,12,13,41,12.80
2020,04,12,13,42,12.90
2020,04,12,13,43,12.90
2020,04,12,13,44,12.90
2020,04,12,13,45,12.90
2020,04,12,13,46,12.90
2020,04,12,13,47,12.90
2020,04,12,13,48,12.90
2020,04,12,13,49,12.90
2020,04,12,13,50,12.90
2020,04,12,13,51,12.90
2020,04,12,13,52,12.90
2020,04,12,13,53,12.90
2020,04,12,13,54,12.90
2020,04,12,13,55,12.90
2020,04,12,13,56,12.90
2020,04,12,13,57,12.80
2020,04,12,13,58,12.80
2020,04,12,13,59,12.80
2020,04,12,14,00,12.80
2020,04,12,14,01,12.70
2020,04,12,14,02,12.70
2020,04,12,14,03,12.70
2020,04,12,14,04,12.70
2020,04,12,14,05,12.70
2020,04,12,14,06,12.70
2020,04,12,14,07,12.80
2020,04,12,14,08,12.70
2020,04,12,14,09,12.70
2020,04,12,14,10,12.80
2020,04,12,14,11,12.80
2020,04,12,14,12,12.80
2020,04,12,14,13,12.80
2020,04,12,14,14,12.80
2020,04,12,14,15,12.80
2020,04,12,14,16,12.80
2020,04,12,14,17,12.90
2020,04,12,14,18,12.90
2020,04,12,14,19,12.90
2020,04,12,14,20,12.90
2020,04,12,14,21,12.80
2020,04,12,14,22,12.80
2020,04,12,14,23,12.90
2020,04,12,14,24,12.90
2020,04,12,14,25,12.90
2020,04,12,14,26,12.90
2020,04,12,14,27,13.00
2020,04,12,14,28,13.00
2020,04,12,14,29,13.00
2020,04,12,14,30,13.00
2020,04,12,14,31,13.00
2020,04,12,14,32,13.00
2020,04,12,14,33,13.00
2020,04,12,14,34,13.00
2020,04,12,14,35,13.00
2020,04,12,14,36,13.10
2020,04,12,14,37,13.10
2020,04,12,14,38,13.20
2020,04,12,14,39,13.20
2020,04,12,14,40,13.30
2020,04,12,14,41,13.30
2020,04,12,14,42,13.30
2020,04,12,14,43,13.30
2020,04,12,14,44,13.30
2020,04,12,14,45,13.30
2020,04,12,14,46,13.30
2020,04,12,14,47,13.30
2020,04,12,14,48,13.30
2020,04,12,14,49,13.30
2020,04,12,14,50,13.30
2020,04,12,14,51,13.30
2020,04,12,14,52,13.30
2020,04,12,14,53,13.30
2020,04,12,14,54,13.30
2020,04,12,14,55,13.30
2020,04,12,14,56,13.30
2020,04,12,14,57,13.30
2020,04,12,14,58,13.40
2020,04,12,14,59,13.40
2020,04,12,15,00,13.40
2020,04,12,15,01,13.40
2020,04,12,15,02,13.40
2020,04,12,15,03,13.40
2020,04,12,15,04,13.40
2020,04,12,15,05,13.50
2020,04,12,15,06,13.50
2020,04,12,15,07,13.50
2020,04,12,15,08,13.60
2020,04,12,15,09,13.60
2020,04,12,15,10,13.60
2020,04,12,15,11,13.70
2020,04,12,15,12,13.70
2020,04,12,15,13,13.70
2020,04,12,15,14,13.80
2020,04,12,15,15,13.80
2020,04,12,15,16,13.90
2020,04,12,15,17,14.00
2020,04,12,15,18,14.00
2020,04,12,15,19,14.10
2020,04,12,15,20,14.20
2020,04,12,15,21,14.20
2020,04,12,15,22,14.30
2020,04,12,15,23,14.30
2020,04,12,15,24,14.30
2020,04,12,15,25,14.40
2020,04,12,15,26,14.40
2020,04,12,15,27,14.40
2020,04,12,15,28,14.50
2020,04,12,15,29,14.50
2020,04,12,15,30,14.60
2020,04,12,15,31,14.60
2020,04,12,15,32,14.60
2020,04,12,15,33,14.70
2020,04,12,15,34,14.70
2020,04,12,15,35,14.70
2020,04,12,15,36,14.80
2020,04,12,15,37,14.80
2020,04,12,15,38,14.80
2020,04,12,15,39,14.80
2020,04,12,15,40,14.80
2020,04,12,15,41,14.70
2020,04,12,15,42,14.70
2020,04,12,15,43,14.70
2020,04,12,15,44,14.70
2020,04,12,15,45,14.70
2020,04,12,15,46,14.60
2020,04,12,15,47,14.60
2020,04,12,15,48,14.60
2020,04,12,15,49,14.50
2020,04,12,15,50,14.50
2020,04,12,15,51,14.50
2020,04,12,15,52,14.50
2020,04,12,15,53,14.50
2020,04,12,15,54,14.50
2020,04,12,15,55,14.60
2020,04,12,15,56,14.60
2020,04,12,15,57,14.60
2020,04,12,15,58,14.60
2020,04,12,15,59,14.60
2020,04,12,16,00,14.60
2020,04,12,16,01,14.60
2020,04,12,16,02,14.60
2020,04,12,16,03,14.50
2020,04,12,16,04,14.50
2020,04,12,16,05,14.50
2020,04,12,16,06,14.50
2020,04,12,16,07,14.40
2020,04,12,16,08,14.40
2020,04,12,16,09,14.40
2020,04,12,16,10,14.30
2020,04,12,16,11,14.30
2020,04,12,16,12,14.20
2020,04,12,16,13,14.20
2020,04,12,16,14,14.20
2020,04,12,16,15,14.10
2020,04,12,16,16,14.10
2020,04,12,16,17,14.00
2020,04,12,16,18,14.00
2020,04,12,16,19,14.00
2020,04,12,16,20,13.90
2020,04,12,16,21,13.90
2020,04,12,16,22,13.90
2020,04,12,16,23,13.80
2020,04,12,16,24,13.80
2020,04,12,16,25,13.80
2020,04,12,16,26,13.80
2020,04,12,16,27,13.80
2020,04,12,16,28,13.70
2020,04,12,16,29,13.70
2020,04,12,16,30,13.60
2020,04,12,16,31,13.60
2020,04,12,16,32,13.60
2020,04,12,16,33,13.60
2020,04,12,16,34,13.60
2020,04,12,16,35,13.60
2020,04,12,16,36,13.60
2020,04,12,16,37,13.50
2020,04,12,16,38,13.50
2020,04,12,16,39,13.50
2020,04,12,16,40,13.40
2020,04,12,16,41,13.40
2020,04,12,16,42,13.40
2020,04,12,16,43,13.30
2020,04,12,16,44,13.30
2020,04,12,16,45,13.30
2020,04,12,16,46,13.30
2020,04,12,16,47,13.30
2020,04,12,16,48,13.20
2020,04,12,16,49,13.20
2020,04,12,16,50,13.20
2020,04,12,16,51,13.20
2020,04,12,16,52,13.20
2020,04,12,16,53,13.20
2020,04,12,16,54,13.20
2020,04,12,16,55,13.20
2020,04,12,16,56,13.20
2020,04,12,16,57,13.20
2020,04,12,16,58,13.20
2020,04,12,16,59,13.20
2020,04,12,17,00,13.10
2020,04,12,17,01,13.10
2020,04,12,17,02,13.10
2020,04,12,17,03,13.10
2020,04,12,17,04,13.10
2020,04,12,17,05,13.10
2020,04,12,17,06,13.10
2020,04,12,17,07,13.10
2020,04,12,17,08,13.00
2020,04,12,17,09,13.00
2020,04,12,17,10,13.00
2020,04,12,17,11,13.00
2020,04,12,17,12,13.10
2020,04,12,17,13,13.10
2020,04,12,17,14,13.10
2020,04,12,17,15,13.10
2020,04,12,17,16,13.10
2020,04,12,17,17,13.10
2020,04,12,17,18,13.10
2020,04,12,17,19,13.10
2020,04,12,17,20,13.10
2020,04,12,17,21,13.10
2020,04,12,17,22,13.10
2020,04,12,17,23,13.10
2020,04,12,17,24,13.10
2020,04,12,17,25,13.10
2020,04,12,17,26,13.10
2020,04,12,17,27,13.10
2020,04,12,17,28,13.10
2020,04,12,17,29,13.10
2020,04,12,17,30,13.10
2020,04,12,17,31,13.10
2020,04,12,17,32,13.10
2020,04,12,17,33,13.10
2020,04,12,17,34,13.10
2020,04,12,17,35,13.10
2020,04,12,17,36,13.10
2020,04,12,17,37,13.10
2020,04,12,17,38,13.10
2020,04,12,17,39,13.10
2020,04,12,17,40,13.10
2020,04,12,17,41,13.10
2020,04,12,17,42,13.10
2020,04,12,17,43,13.10
2020,04,12,17,44,13.10
2020,04,12,17,45,13.10
2020,04,12,17,46,13.00
2020,04,12,17,47,13.00
2020,04,12,17,48,13.00